FENGYUN 1C DEB, 33716

Orbit data source: Space-Track

FENGYUN 1C DEB, 33716 is space debris in SSO originally from a launch on Mon, 10 May 1999 UTC launched from the Taiyaun Space Center, China (TSC). Fengyun 1C debris stems from the Chinese weather satellite Fengyun-1C, which was intentionally destroyed by a Chinese anti-satellite missile in 2007. This event dramatically increased the amount of space debris, with thousands of trackable fragments posing hazards to satellites and human spaceflight. The Fengyun 1C debris cloud has become a focal point in discussions about space sustainability and the need for international regulations to prevent the creation of new debris.

Loading next visibility...
Identifier
33716, 1999-025DHD
Orbit
SSO
Country
Flag of CNCN / PRC
Related business
Manufacturer
Unknown
Mission
Spacecraft
Bus & Motor
Unknown
Mass
Unknown
Launch date (UTC)
1999-05-10 (27 years ago)
Launch vehicle
Unknown
Launch site
Taiyaun Space Center, China (TSC)
Object type
Payload
Rocket body
Debris
Shape & HBR
Unknown shape, 0.1 m
Radar Cross Section
Small (<0.1 m²)

Expand to show TLE details & history
Last TLE update: 3 days ago

TLE from 3 days ago
0 FENGYUN 1C DEB
1 33716U 99025DHD 26117.59346864  .00000338  00000-0  13492-3 0  9993
2 33716  98.8835  51.4895 0092672 320.2221  39.2192 14.32805439671035
Epoch: 2026-04-27T14:14Z
TLE epoch observation values (Epoch: 2026-04-27T14:14:35.690Z)
Latitude
-0.00002°
Longitude
-17.74011°
Altitude
734.124 km
Speed
7.515 km/s
True Right ascension
03h 25m 57s
True Declination
0° 00' 00"
Sunlit
Object was in daylight at epoch
Visualization orbit readout
Latitude
Unknown
Longitude
Unknown
Altitude
Unknown
Speed
Unknown
Apparent Right ascension
Unknown
Apparent Declination
Unknown
Sunlit
N/A
Visualization observer readout
Local Sidereal Time
00:01:37
Azimuth
Unknown
Elevation
Unknown
Doppler factor
Unknown
Orbital elements
Apogee altitude
845.85 km
Perigee altitude
713.187 km
Semi-major axis
7,157.655 km
Eccentricity
0.00927
Inclination
98.8835°
RAAN
51.4895°
Arg. of periapsis
320.2221°
True anomaly
39.89672°
Mean anomaly
39.2192°
Eccentric anomaly
39.55735°
Mean motion
3.58416 °/min
Orbital period
100.44 mins
BSTAR
0.00013492
Loading maneuver chart data...
Computing Atmospheric mass density...

Documentation

Showing up to 5 results
|